(84304) = 1999 FO58 = 2002 TB40

Discovered at Socorro on 2002-10-02 by LINEAR.

Orbit

Orbit type: Main Belt

Note: WebGL enabled browser required.

epoch2024-03-31.0
epoch JD2460400.5
perihelion date2024-11-30.41899
perihelion JD2460644.91899
argument of perihelion (°)257.54617
ascending node (°)196.05206
inclination (°)9.90810
eccentricity0.1051074
perihelion distance (AU)2.7398134
Tisserand w.r.t. Jupiter3.2
ΔV w.r.t. Earth (km/sec)10.8
semimajor axis (AU)3.0616115
mean anomaly (°)315.03095
mean daily motion (°/day)0.18398340
aphelion distance (AU)3.383
period (years)5.36
P-vector [x]-0.05873264
P-vector [y]0.96966650
P-vector [z]0.23727064
Q-vector [x]-0.99713928
Q-vector [y]-0.04565660
Q-vector [z]-0.06023898
absolute magnitude14.44
phase slope0.15
uncertainty0
referenceMPEC 2024-C163
observations used1473
oppositions21
arc length (days)11748
first opposition used1991
last opposition used2023
residual rms (arc-secs)0.66
perturbers coarse indicatorM-v
perturbers precise indicator003Ek
first observation date used1991-10-08.0
last observation date used2023-12-07.0
computer nameMPCLINUX
JD of orbit computation2456819.577571
perihelion JD uncertainty (days)1.8231E-04
argument of perihelion uncertainty (°)4.3293E-05
ascending node uncertainty (°)2.5802E-05
inclination uncertainty (°)7.4209E-06
eccentricity uncertainty 4.0888E-08
perihelion distance uncertainty (AU)1.2723E-07
Minimum Orbit Intersection Distances (in AU)
for orbit epoch: 2460200.5, reference: E2024-CG3
Mercury2.43885
Venus2.03386
Earth1.77426
Mars1.20461
Jupiter1.88651
Saturn6.33869
Uranus15.4468
Neptune26.8311

Observations

1505 total observations over interval: 1991 10 08.24439 – 2023 12 07.122915
These data are available for download (format description).

Date (UT) J2000 RA J2000 Dec Magn Location Ref
1991 10 08.24439 00 48 08.65 +05 56 33.4   691 – Steward Observatory, Kitt Peak-Spacewatch MPS 82692
1991 10 08.26495 00 48 07.80 +05 56 23.6   691 – Steward Observatory, Kitt Peak-Spacewatch MPS 82692
1991 10 08.28542 00 48 06.86 +05 56 14.7 19.1 V 691 – Steward Observatory, Kitt Peak-Spacewatch MPS 82692
1999 03 20.21039 11 28 50.53 -02 24 12.6 19.6   704 – Lincoln Laboratory ETS, New Mexico MPS 4558
1999 03 20.22849 11 28 49.74 -02 24 01.8 19.3   704 – Lincoln Laboratory ETS, New Mexico MPS 4558
1999 03 20.24647 11 28 48.88 -02 23 54.7 19.3   704 – Lincoln Laboratory ETS, New Mexico MPS 4558
1999 03 20.26454 11 28 48.12 -02 23 44.5 19.8   704 – Lincoln Laboratory ETS, New Mexico MPS 4558
1999 03 23.25510 11 26 45.95 -02 00 32.8 18.5   704 – Lincoln Laboratory ETS, New Mexico MPS 4558
1999 03 23.26975 11 26 45.37 -02 00 26.3 18.5   704 – Lincoln Laboratory ETS, New Mexico MPS 4558
1999 03 23.28445 11 26 44.67 -02 00 18.1 18.5   704 – Lincoln Laboratory ETS, New Mexico MPS 4558
1999 03 23.29912 11 26 44.11 -02 00 12.4 18.7   704 – Lincoln Laboratory ETS, New Mexico MPS 4558
1999 03 23.31380 11 26 43.46 -02 00 07.7 19.3   704 – Lincoln Laboratory ETS, New Mexico MPS 4558
2000 05 27.31834 16 43 43.42 -10 47 56.5 18.8   704 – Lincoln Laboratory ETS, New Mexico MPS 82692
2000 05 27.33195 16 43 42.73 -10 47 54.6 18.8   704 – Lincoln Laboratory ETS, New Mexico MPS 82692
2000 05 27.34551 16 43 42.07 -10 47 52.6 18.7   704 – Lincoln Laboratory ETS, New Mexico MPS 82692
2000 05 27.35909 16 43 41.44 -10 47 50.4 18.8   704 – Lincoln Laboratory ETS, New Mexico MPS 82692
2000 05 27.37262 16 43 40.83 -10 47 48.2 19.3   704 – Lincoln Laboratory ETS, New Mexico MPS 82692
2001 07 26.59912 21 16 42.38 -02 54 09.8 20.0   608 – Haleakala-AMOS MPS 107235
2001 07 26.60949 21 16 41.95 -02 54 10.8 19.8   608 – Haleakala-AMOS MPS 107235
2001 07 26.62015 21 16 41.53 -02 54 12.8 19.9   608 – Haleakala-AMOS MPS 107235
2002 10 02.40568 02 45 59.54 +12 01 30.7 19.1   704 – Lincoln Laboratory ETS, New Mexico MPS 63900
2002 10 02.42194 02 45 59.07 +12 01 24.6 19.4   704 – Lincoln Laboratory ETS, New Mexico MPS 63900
2002 10 02.43683 02 45 58.70 +12 01 19.2 19.5   704 – Lincoln Laboratory ETS, New Mexico MPS 63900
2002 10 02.45188 02 45 58.37 +12 01 13.7 19.0   704 – Lincoln Laboratory ETS, New Mexico MPS 63900
2002 10 03.33777 02 45 36.81 +11 56 05.5 18.9   704 – Lincoln Laboratory ETS, New Mexico MPS 63900
2002 10 03.35326 02 45 36.39 +11 55 59.9 19.1   704 – Lincoln Laboratory ETS, New Mexico MPS 63900
2002 10 03.36896 02 45 36.02 +11 55 55.8 19.6   704 – Lincoln Laboratory ETS, New Mexico MPS 63900
2002 10 03.38441 02 45 35.59 +11 55 48.4 19.5   704 – Lincoln Laboratory ETS, New Mexico MPS 63900
2002 10 09.33105 02 42 45.06 +11 19 19.4 19.3   704 – Lincoln Laboratory ETS, New Mexico MPS 63900
2002 10 09.34669 02 42 44.55 +11 19 13.9 19.4   704 – Lincoln Laboratory ETS, New Mexico MPS 63900
2002 10 09.36247 02 42 44.01 +11 19 07.5 19.5   704 – Lincoln Laboratory ETS, New Mexico MPS 63900
2002 10 09.37821 02 42 43.49 +11 19 00.7 19.7   704 – Lincoln Laboratory ETS, New Mexico MPS 63900
2002 10 09.39399 02 42 42.93 +11 18 55.6 19.4   704 – Lincoln Laboratory ETS, New Mexico MPS 63900
2002 10 11.31609 02 41 39.48 +11 06 26.9 19.2   704 – Lincoln Laboratory ETS, New Mexico MPS 63900
2002 10 11.32291 02 41 39.15 +11 06 23.8 18.8   704 – Lincoln Laboratory ETS, New Mexico MPS 63900
2002 10 11.33113 02 41 38.86 +11 06 20.9 19.3   704 – Lincoln Laboratory ETS, New Mexico MPS 63900
2002 10 11.33871 02 41 38.60 +11 06 17.2 18.8   704 – Lincoln Laboratory ETS, New Mexico MPS 63900
2002 10 11.34743 02 41 38.30 +11 06 13.3 18.9   704 – Lincoln Laboratory ETS, New Mexico MPS 63900
2002 10 11.35468 02 41 38.08 +11 06 11.0 18.7   704 – Lincoln Laboratory ETS, New Mexico MPS 63900
2002 10 11.36341 02 41 37.77 +11 06 07.5 18.9   704 – Lincoln Laboratory ETS, New Mexico MPS 63900
2002 10 11.37060 02 41 37.49 +11 06 04.9 19.0   704 – Lincoln Laboratory ETS, New Mexico MPS 63900
2002 10 11.37862 02 41 37.23 +11 06 01.7 18.8   704 – Lincoln Laboratory ETS, New Mexico MPS 63900
2002 10 11.38635 02 41 36.94 +11 05 58.3 18.8   704 – Lincoln Laboratory ETS, New Mexico MPS 63900
2002 10 26.55903 02 31 27.25 +09 21 07.7 19.1   608 – Haleakala-AMOS MPS 66026
2002 10 26.56999 02 31 26.73 +09 21 03.0 19.1   608 – Haleakala-AMOS MPS 66026
2002 10 26.58053 02 31 26.25 +09 20 58.7 18.9   608 – Haleakala-AMOS MPS 66026
2002 11 01.25629 02 27 10.50 +08 41 12.7 18.5   704 – Lincoln Laboratory ETS, New Mexico MPS 66026
2002 11 01.27338 02 27 09.72 +08 41 06.0 18.5   704 – Lincoln Laboratory ETS, New Mexico MPS 66026
2002 11 01.29048 02 27 08.95 +08 40 58.2 18.6   704 – Lincoln Laboratory ETS, New Mexico MPS 66026
2002 11 01.30784 02 27 08.10 +08 40 51.3 18.4   704 – Lincoln Laboratory ETS, New Mexico MPS 66026
2002 11 01.55143 02 26 56.80 +08 39 09.8 18.5   608 – Haleakala-AMOS MPS 66026
2002 11 01.56196 02 26 56.34 +08 39 05.9 18.4   608 – Haleakala-AMOS MPS 66026
2002 11 01.57247 02 26 55.85 +08 39 01.3 18.7   608 – Haleakala-AMOS MPS 66026
2002 11 06.18070 02 23 27.86 +08 07 47.5 18.0 R 699 – Lowell Observatory-LONEOS MPS 66026
2002 11 06.20156 02 23 26.93 +08 07 38.9   699 – Lowell Observatory-LONEOS MPS 66026
2002 11 06.22236 02 23 25.95 +08 07 30.2   699 – Lowell Observatory-LONEOS MPS 66026
2002 11 06.24315 02 23 24.97 +08 07 22.7   699 – Lowell Observatory-LONEOS MPS 66026
2002 11 07.27442 02 22 38.89 +08 00 36.6 18.1   704 – Lincoln Laboratory ETS, New Mexico MPS 66026
2002 11 07.29211 02 22 38.08 +08 00 29.7 18.3   704 – Lincoln Laboratory ETS, New Mexico MPS 66026
2002 11 07.30988 02 22 37.27 +08 00 22.8 18.3   704 – Lincoln Laboratory ETS, New Mexico MPS 66026
2002 11 07.32734 02 22 36.45 +08 00 16.0 18.8   704 – Lincoln Laboratory ETS, New Mexico MPS 66026
2002 11 07.34486 02 22 35.65 +08 00 09.0 18.7   704 – Lincoln Laboratory ETS, New Mexico MPS 66026
2002 11 11.23962 02 19 45.75 +07 35 22.2 18.5   704 – Lincoln Laboratory ETS, New Mexico MPS 66026
2002 11 11.25676 02 19 44.98 +07 35 16.0 18.6   704 – Lincoln Laboratory ETS, New Mexico MPS 66026
2002 11 11.27409 02 19 44.20 +07 35 09.3 18.3   704 – Lincoln Laboratory ETS, New Mexico MPS 66026
2002 11 11.29136 02 19 43.46 +07 35 03.0 18.5   704 – Lincoln Laboratory ETS, New Mexico MPS 66026
2002 11 11.30868 02 19 42.68 +07 34 56.4 18.4   704 – Lincoln Laboratory ETS, New Mexico MPS 66026
2002 11 30.17645 02 08 41.71 +06 01 56.0 19.0   704 – Lincoln Laboratory ETS, New Mexico MPS 68012
2002 11 30.19145 02 08 41.35 +06 01 52.8 19.5   704 – Lincoln Laboratory ETS, New Mexico MPS 68012
2002 11 30.20614 02 08 40.97 +06 01 50.1 19.5   704 – Lincoln Laboratory ETS, New Mexico MPS 68012
2003 01 07.08467 02 08 56.72 +05 47 58.3 18.9   704 – Lincoln Laboratory ETS, New Mexico MPS 69944
2003 01 07.10090 02 08 57.09 +05 48 00.7 19.9   704 – Lincoln Laboratory ETS, New Mexico MPS 69944
2003 01 07.11485 02 08 57.51 +05 48 02.9 19.0   704 – Lincoln Laboratory ETS, New Mexico MPS 69944
2003 01 07.12887 02 08 57.81 +05 48 03.3 19.4   704 – Lincoln Laboratory ETS, New Mexico MPS 69944
2003 01 07.14455 02 08 58.15 +05 48 05.9 19.8   704 – Lincoln Laboratory ETS, New Mexico MPS 69944
2004 01 14.45275 09 37 56.66 +00 50 36.0 18.1   644 – Palomar Mountain/NEAT MPS 96602
2004 01 14.47378 09 37 55.98 +00 50 37.8 18.2   644 – Palomar Mountain/NEAT MPS 96602
2004 01 14.49697 09 37 55.24 +00 50 39.9 18.5   644 – Palomar Mountain/NEAT MPS 96602
2004 01 29.27749 09 28 33.99 +01 31 39.5 18.0   704 – Lincoln Laboratory ETS, New Mexico MPS 97783
2004 01 29.28460 09 28 33.66 +01 31 41.1 17.7 R 699 – Lowell Observatory-LONEOS MPS 97783
2004 01 29.28968 09 28 33.41 +01 31 42.2 18.0   704 – Lincoln Laboratory ETS, New Mexico MPS 97783
2004 01 29.29872 09 28 33.00 +01 31 44.3   699 – Lowell Observatory-LONEOS MPS 97783
2004 01 29.30174 09 28 32.86 +01 31 45.5 18.1   704 – Lincoln Laboratory ETS, New Mexico MPS 97783
2004 01 29.31284 09 28 32.40 +01 31 47.8   699 – Lowell Observatory-LONEOS MPS 97783
2004 01 29.31394 09 28 32.34 +01 31 48.2 18.7   704 – Lincoln Laboratory ETS, New Mexico MPS 97783
